EDT,Max TemperatureF,Mean TemperatureF,Min TemperatureF,Max Dew PointF,MeanDew PointF,Min DewpointF,Max Humidity, Mean Humidity, Min Humidity, Max Sea Level PressureIn, Mean Sea Level PressureIn, Min Sea Level PressureIn, Max VisibilityMiles, Mean VisibilityMiles, Min VisibilityMiles, Max Wind SpeedMPH, Mean Wind SpeedMPH, Max Gust SpeedMPH,PrecipitationIn, CloudCover, Events, WindDirDegrees
2013-4-1,44,36,28,28,19,13,69,49,28,30.19,30.07,29.89,10,10,10,21,11,29,0.00,2,,322
2013-4-2,45,34,22,17,13,9,74,48,22,30.32,30.26,30.19,10,10,10,17,8,24,0.00,0,,323
2013-4-3,47,34,21,21,16,12,84,56,27,30.46,30.38,30.31,10,10,8,17,4,22,0.00,0,,84
2013-4-4,57,43,28,23,18,14,69,44,19,30.35,30.15,30.01,10,10,10,10,3,14,0.00,0,,121
2013-4-5,56,44,31,33,25,15,75,49,22,30.18,30.10,30.00,10,10,10,16,9,22,0.00,0,,10
2013-4-6,70,53,36,37,30,22,64,45,26,30.16,29.97,29.74,10,10,9,24,13,36,T,2,,163
2013-4-7,70,59,48,43,39,35,80,54,28,29.94,29.87,29.73,10,10,8,21,10,32,0.01,1,Rain,285
2013-4-8,74,62,50,57,52,37,93,71,49,29.95,29.84,29.76,10,10,7,23,11,32,0.02,5,Rain-Thunderstorm,207
2013-4-9,79,66,53,57,55,52,93,68,42,29.97,29.90,29.84,10,9,6,26,9,38,0.00,7,,213
2013-4-10,72,60,47,63,53,45,93,80,66,29.87,29.82,29.71,10,6,0,92,9,29,1.56,7,Fog-Rain-Thunderstorm,326
2013-4-11,63,53,42,59,52,39,100,92,83,29.78,29.65,29.58,10,7,1,20,10,26,0.56,8,Rain-Thunderstorm,251
2013-4-12,42,40,37,38,33,28,82,72,62,29.91,29.75,29.63,10,10,9,22,13,29,0.01,8,Rain,265
2013-4-13,47,42,37,35,31,27,79,66,53,30.01,29.97,29.91,10,10,10,23,9,30,0.00,8,,270
2013-4-14,71,56,40,47,40,34,76,55,34,30.01,29.89,29.75,10,10,10,18,9,26,T,4,,140
2013-4-15,66,60,54,57,51,43,93,72,51,29.92,29.87,29.79,10,10,5,17,8,25,0.07,5,Rain,202
2013-4-16,54,50,46,52,44,36,93,77,61,30.22,30.08,29.92,10,8,2,22,8,28,1.11,8,Rain-Thunderstorm,27
2013-4-17,71,58,45,65,51,36,93,79,65,30.22,30.03,29.85,10,8,1,30,10,38,0.68,7,Rain-Thunderstorm,70
2013-4-18,73,59,44,63,58,45,100,87,73,29.81,29.66,29.57,10,6,0,30,10,44,2.71,7,Fog-Rain-Thunderstorm,204
2013-4-19,44,39,34,45,32,27,100,82,64,29.97,29.73,29.59,10,9,4,25,15,36,0.18,8,Rain,270
2013-4-20,45,38,30,30,26,22,85,63,40,30.44,30.22,29.96,10,10,10,17,8,24,0.00,4,,311
2013-4-21,52,41,30,31,26,19,69,54,39,30.55,30.46,30.37,10,10,10,17,10,24,0.00,0,,108
2013-4-22,65,50,34,37,32,28,82,56,30,30.37,30.24,30.09,10,10,10,13,6,18,0.00,0,,123
2013-4-23,64,52,40,55,48,38,100,76,52,30.09,29.90,29.80,10,6,2,26,7,33,0.83,6,Rain,198
2013-4-24,48,42,36,41,36,29,100,75,49,30.22,30.01,29.88,10,10,6,20,10,28,0.29,7,Rain,325
2013-4-25,51,43,35,34,30,25,82,61,39,30.38,30.27,30.18,10,10,10,28,9,36,0.00,1,,285
2013-4-26,63,49,34,42,35,29,82,61,39,30.43,30.37,30.32,10,10,10,13,5,17,0.00,0,,164
2013-4-27,63,51,39,52,43,37,100,70,39,30.34,30.18,30.01,10,10,6,16,6,22,0.11,5,Rain,125
2013-4-28,60,56,52,55,53,52,100,89,78,30.00,29.89,29.84,10,7,2,12,4,14,0.21,8,Rain,71
2013-4-29,70,62,53,54,52,50,93,72,51,29.98,29.91,29.86,10,10,8,14,6,20,0.00,5,,216
2013-4-30,80,67,54,58,54,49,89,66,42,29.99,29.93,29.89,10,10,10,15,8,21,0.00,0,,180